SCP
0 0 0 0 0 0 0 0 0 0 0 0 0 0 0 0 0 0 0 0 0 0 0 0 0 0 0 0 0 0 0 0 0 0 0 0 0 0
0 0 0 0 0 0 0 0 0 0 0 0 0 0 0 0 0 0 0 0 0 0 0 0 0 0 0 0 0 0 0 0 0 0 0 0 0 0
0 0 0 0 0 0 0 0 0 0 0 0 0 0 0 0 0 0 0 0 0 0 0 0 0 0 0 0 0 0 0 0 0 0 0 0 0 0
0 0 0 0 0 0 0 0 0 0 0 0 0 0 0 0 0 0 0 0 0 0 0 0 0 0 0 0 0 0 0 0 0 0 0 0 0 0
0 0 0 0 0 0 0 0 0 0 0 0 0 0 0 0 0 0 0 0 0 0 0 0 0 0 0 0 0 0 0 0 0 0 0 0 0 0
0 0 0 0 0 0 0 0 0 0 0 0 0 0 0 0 0 0 0 0 0 0 0 0 0 0 0 0 0 0 0 0 0 0 0 0 0 0
0 0 0 0 0 0 0 0 0 0 0 0 0 0 0 0 0 0 0 0 0 0 0 0 0 0 0 0 0 0 0 0 0 0 0 0 0 0
0 0 0 0 0 0 0 0 0 0 0 0 0 0 0 0 0 0 0 0 0 0 0 0 0 0 0 0 0 0 0 0 0 0 0 0 0 0
0 0 0 0 0 0 0 0 0 0 0 0 0 0 0 0 0 0 0 0 0 0 0 0 0 0 0 0 0 0 0 0 0 0 0 0 0 0
0 0 0 0 0 0 0 0 0 0 0 0 0 0 0 0 0 0 0 0 0 0 0 0 0 0 0 0 0 0 0 0 0 0 0 0 0 0
0 0 0 0 0 0 0 0 0 0 0 0 0 0 0 0 0 0 0 0 0 0 0 0 0 0 0 0 0 0 0 0 0 0 0 0 -0 -0
0 0 0 0 0 0 0 0 0 0 0 0 0 0 0 0 0 0 0 0 0 0 0 0 0 0 0 0 0 0 0 0 0 0 0 0 -0 -0
0 0 0 0 0 0 0 0 0 0 0 0 0 0 0 0 0 0 0 0 0 0 0 0 0 0 0 0 0 0 0 0 0 0 0 0 0 0
0 0 0 0 0 0 0 0 0 0 0 0 0 0 0 0 0 0 0 0 0 0 0 0 0 0 0 0 0 0 0 0 0 0 0 0 0 0
0 0 0 0 0 0 0 0 0 0 0 0 0 0 0 0 0 0 0 0 0 0 0 0 0 0 0 0 0 0 0 0 0 0 0 0 0 0
0 0 0 0 0 0 0 0 0 0 0 0 0 0 0 0 0 0 0 0 0 0 0 0 0 0 0 0 0 0 0 0 0 0 0 0 0 0
0 0 0 0 0 0 0 0 0 0 0 0 0 0 0 0 0 0 0 0 0 0 0 0 0 0 0 0 0 0 0 0 0 0 0 0 0 0
0 0 0 0 0 0 0 0 0 0 0 0 0 0 0 0 0 0 0 0 0 0 0 0 0 0 0 0 0 0 0 0 0 0 0 0 0 0
0 0 0 0 0 0 0 0 0 0 0 0 0 0 0 0 0 0 0 0 0 0 0 0 0 0 0 0 0 0 0 0 0 0 0 0 0 0
0 0 0 0 0 0 0 0 0 0 0 0 0 0 0 0 0 0 0 0 0 0 0 0 0 0 0 0 0 0 0 0 0 0 0 0 0 0
0 0 0 0 0 0 0 0 0 0 0 0 0 0 0 0 0 0 0 0 0 0 0 0 0 0 0 0 0 0 0 0 0 0 0 0 0 0
0 0 0 0 0 0 0 0 0 0 0 0 0 0 0 0 0 0 0 0 0 0 0 0 0 0 0 0 0 0 0 0 0 0 0 0 0 0
0 0 0 0 0 0 0 0 0 0 0 0 0 0 0 0 0 0 0 0 0 0 0 0 0 0 0 0 0 0 0 0 0 0 0 0 0 0
Wind_Speed
2 1 1 1 2 1 1 2 2 2 1 2 2 3 3 4 5 5 7 11 11 10 10 10 10 10 11 11 11 11 10 9 8 8 7 6 6 4
1 2 2 2 1 1 0 0 1 1 1 3 3 3 4 5 7 6 8 12 13 11 10 11 11 11 11 11 11 11 11 11 11 11 10 8 8 8
2 2 2 3 2 2 1 1 1 1 3 3 3 4 5 4 5 5 5 5 8 11 11 11 12 12 12 12 11 11 11 11 12 11 11 11 11 10
4 4 4 3 3 3 2 3 2 2 4 5 3 3 4 4 4 4 4 5 6 11 11 11 11 11 11 11 11 10 10 10 11 11 11 11 11 11
4 4 4 4 4 4 4 3 3 3 3 4 4 3 3 3 3 4 4 3 5 9 10 10 10 10 10 9 9 9 9 9 9 9 10 10 10 11
5 5 5 5 5 4 3 4 3 3 3 3 4 3 3 3 2 3 3 3 2 4 5 6 8 9 8 8 8 8 8 7 8 8 8 8 8 8
5 6 7 9 10 7 5 4 3 2 2 3 3 3 3 2 2 1 2 2 2 2 2 3 4 4 6 6 6 6 6 6 5 5 5 6 6 6
5 5 6 7 9 9 10 9 6 3 2 2 2 2 2 1 1 1 2 1 2 1 1 2 2 3 3 4 6 5 4 4 4 4 4 4 4 4
5 4 4 6 4 6 7 7 7 7 4 2 2 2 2 1 1 1 1 0 1 1 1 1 1 2 3 6 7 4 2 2 2 2 2 2 2 2
6 5 5 5 6 4 5 6 6 6 5 4 4 3 3 2 0 1 1 2 2 1 0 0 1 1 2 4 7 4 2 1 1 1 1 0 1 1
6 6 5 5 6 3 3 5 6 6 8 9 8 7 6 4 2 0 1 1 1 2 1 2 0 0 1 2 5 7 5 4 3 2 1 1 3 5
5 6 8 6 5 4 3 4 5 5 5 6 5 5 4 4 2 2 2 1 1 1 2 2 1 1 2 1 1 3 4 5 5 5 4 3 4 6
4 5 6 7 6 6 3 4 4 2 3 3 3 4 3 3 2 2 3 3 3 2 2 2 2 3 3 2 1 1 2 2 3 4 5 4 3 5
4 5 7 6 6 5 4 4 1 1 2 2 3 3 2 2 2 2 3 3 3 3 3 3 3 3 4 3 2 1 2 2 2 3 2 3 5 5
6 8 6 5 4 4 4 1 1 1 2 2 3 2 2 2 2 2 2 1 1 1 2 3 3 3 4 4 3 3 3 2 2 3 3 4 4 4
6 7 5 3 2 4 3 1 1 3 2 2 2 2 1 1 0 1 0 0 0 1 2 1 3 4 4 4 4 4 4 4 3 3 4 5 4 4
3 3 3 3 3 2 2 2 2 2 1 1 1 1 1 1 1 1 2 2 2 1 0 1 1 2 3 4 4 4 4 4 4 3 5 6 5 4
2 3 3 2 2 2 1 2 2 2 1 1 1 1 1 1 1 1 2 2 3 3 2 2 3 3 4 2 2 5 5 5 4 4 6 6 6 5
3 2 2 2 1 1 1 1 1 2 1 1 1 1 1 2 1 1 2 2 3 3 3 3 4 5 6 5 1 2 5 6 6 6 6 6 7 6
2 2 2 2 1 1 1 1 1 1 1 1 1 1 2 2 2 2 2 3 4 4 4 3 3 5 6 7 6 4 4 5 6 7 7 7 6 5
2 2 2 1 1 1 0 0 1 1 1 2 2 2 2 3 3 3 3 2 4 4 5 4 3 4 6 6 6 5 4 3 4 6 8 9 8 7
2 2 1 1 1 1 0 1 1 1 1 2 2 2 3 3 3 4 4 4 4 4 5 4 3 4 5 6 7 7 7 5 5 9 9 9 8 9
2 1 1 1 1 1 1 1 1 1 1 2 2 2 3 3 3 4 4 4 4 5 5 5 5 5 6 6 7 7 9 8 7 6 5 8 12 13
Wind_Direction
314 299 298 324 307 286 224 211 204 186 126 112 92 65 74 72 81 82 79 79 79 77 77 78 76 74 70 67 65 63 62 62 61 58 53 48 43 39
337 350 341 343 344 328 275 227 257 205 107 84 83 87 73 83 85 84 85 87 79 78 78 78 76 74 72 70 67 64 61 61 60 59 56 52 50 47
14 26 22 5 5 8 38 47 55 100 115 94 82 88 85 86 93 95 94 91 87 84 81 80 78 74 70 67 65 63 63 62 61 60 58 55 54 51
39 41 36 42 45 33 42 58 65 84 120 118 114 106 99 104 104 105 101 95 92 93 89 85 81 79 76 72 68 65 62 61 61 59 58 56 54 52
42 46 44 47 50 55 57 64 74 89 105 123 120 111 115 111 113 103 92 88 101 110 108 101 93 88 83 78 72 67 62 59 59 59 57 55 54 55
50 50 48 47 48 59 72 78 84 95 111 120 122 124 123 128 136 127 114 103 90 95 93 107 113 108 98 89 81 73 66 62 61 60 57 55 53 53
69 64 61 59 50 42 48 60 75 90 109 120 121 126 124 133 135 122 112 117 108 107 133 135 138 127 121 113 95 80 75 71 66 61 58 57 57 56
82 81 88 79 76 74 68 60 51 61 78 100 112 110 108 111 96 128 126 140 131 134 174 127 128 105 101 92 86 84 80 77 72 64 58 55 59 59
75 71 68 73 71 78 90 96 76 63 54 50 86 80 100 92 140 142 134 133 67 121 194 126 116 100 101 94 106 102 88 83 75 64 63 60 55 47
74 72 72 68 57 56 76 76 72 65 56 59 71 58 66 63 272 176 152 139 137 112 0 282 139 125 111 117 132 136 130 120 101 66 62 37 311 286
75 67 66 76 48 19 85 87 85 85 81 77 76 79 76 62 7 259 176 205 145 121 22 302 283 233 187 156 147 162 168 173 183 194 224 285 290 265
97 91 70 58 43 14 77 86 85 80 84 97 101 112 112 102 46 348 328 307 343 99 66 305 291 280 255 175 166 172 184 182 193 199 213 249 295 287
105 95 83 70 57 36 33 68 67 74 99 103 110 108 105 97 80 43 7 349 346 10 41 298 302 292 290 281 240 249 262 227 211 205 206 213 244 282
88 86 89 89 78 60 61 60 12 270 104 91 86 83 81 77 66 53 44 30 14 15 6 332 315 311 296 288 290 276 278 287 290 298 298 201 221 227
82 82 95 115 131 109 97 53 269 81 76 79 75 66 57 53 75 106 111 110 116 63 48 344 316 309 302 306 308 307 299 293 286 293 296 291 288 275
117 123 139 136 112 93 125 142 66 44 30 59 61 54 51 90 61 35 68 184 192 122 108 6 327 315 305 314 306 305 306 303 305 305 305 293 282 278
133 150 142 137 127 112 100 84 79 89 66 48 33 17 14 27 9 347 324 302 303 313 236 191 234 274 294 296 299 309 309 307 312 326 299 292 292 289
195 146 129 127 121 111 107 97 86 67 39 25 17 1 349 347 356 340 321 319 325 328 335 329 305 283 265 223 299 303 305 311 315 309 295 297 299 300
199 143 134 132 122 104 88 68 62 59 358 338 8 360 342 333 331 318 314 313 318 325 326 324 318 313 310 311 260 275 310 314 310 306 301 299 298 300
193 144 143 136 122 100 68 41 45 53 359 332 326 319 315 312 314 309 315 323 316 315 309 311 321 322 317 317 314 299 259 297 310 310 307 299 292 284
162 148 145 134 127 121 54 329 342 341 342 313 320 317 307 302 311 314 316 324 301 305 307 314 340 301 294 293 293 299 303 235 266 293 303 300 298 294
164 164 153 148 164 154 198 264 282 298 302 289 311 310 305 299 298 302 309 309 306 306 308 312 308 290 292 297 300 303 302 297 251 236 250 270 293 303
168 174 173 179 167 172 214 257 278 293 300 300 302 300 301 301 300 299 301 302 303 304 306 307 306 299 298 299 299 301 303 301 297 286 266 229 230 243